Doylestown, PA

9:39 PM EST on December 15, 2019 (GMT -0500)
Doylestown

Weather History for KDYL - October, 2019

Change the Weather History Date:

Wednesday, October 2, 2019

  Actual Average (KTTN) Record (KTTN)
Temperature  
Mean Temperature 82 °F -  
Max Temperature 96 °F 67 °F 88 °F (1927)
Min Temperature 70 °F 47 °F 40 °F (2003)
Cooling Degree Days 16    
Growing Degree Days 32 (Base 50)    
Moisture  
Dew Point 66 °F    
Average Humidity 68    
Maximum Humidity 90    
Minimum Humidity 37    
Precipitation  
Precipitation 0.02 in - - ()
Sea Level Pressure  
Sea Level Pressure 29.85 in    
Wind  
Wind Speed 7 mph (WSW)    
Max Wind Speed 13 mph    
Max Gust Speed 23 mph    
Visibility 10 miles    
Events Rain    
Averages and records for this station are not official NWS values.
T = Trace of Precipitation, MM = Missing Value Source: NWS Daily Summary

Daily Weather History Graph

Daily Weather History Graph

Search for Another Location

Airport or City:

Astronomy

Oct. 02, 2019 Rise Set
Actual Time 6:57 AM EDT 6:41 PM EDT
Civil Twilight 6:30 AM EDT 7:08 PM EDT
Nautical Twilight 5:58 AM EDT 7:40 PM EDT
Astronomical Twilight 5:27 AM EDT 8:11 PM EDT
Moon 11:20 AM EDT (10/2) 9:33 PM EDT (10/2)
Length of Visible Light 12h 38m
Length of Day
11h 43m
Waxing Crescent, 20% of the Moon is Illuminated
Oct 2
Waxing Crescent
Oct 5
First Quarter
Oct 13
Full
Oct 21
Last Quarter
Oct 27
New

Hourly Weather History & Observations

Time (EDT) Temp. Heat Index Dew Point Humidity Pressure Visibility Wind Dir Wind Speed Gust Speed Precip Events Conditions
12:54 AM 72.0 °F - 64.9 °F 78% 29.88 in 10.0 mi SSW 5.8 mph - N/A   Clear
1:54 AM 72.0 °F - 66.0 °F 81% 29.89 in 10.0 mi SSW 5.8 mph - N/A   Clear
2:54 AM 71.1 °F - 66.0 °F 84% 29.87 in 10.0 mi Variable 4.6 mph - N/A   Clear
3:54 AM 71.1 °F - 66.0 °F 84% 29.87 in 10.0 mi Variable 4.6 mph - N/A   Clear
4:54 AM 71.1 °F - 66.9 °F 87% 29.86 in 10.0 mi SW 5.8 mph - N/A   Clear
5:54 AM 70.0 °F - 66.9 °F 90% 29.86 in 10.0 mi WSW 4.6 mph - N/A   Scattered Clouds
6:54 AM 70.0 °F - 66.9 °F 90% 29.87 in 10.0 mi SW 4.6 mph - N/A   Clear
7:54 AM 71.1 °F - 66.9 °F 87% 29.87 in 10.0 mi SW 5.8 mph - N/A   Clear
8:54 AM 75.0 °F - 68.0 °F 79% 29.87 in 10.0 mi SW 5.8 mph - N/A   Clear
9:54 AM 82.0 °F 84.9 °F 68.0 °F 62% 29.86 in 10.0 mi SW 6.9 mph - N/A   Clear
10:54 AM 86.0 °F 88.8 °F 66.9 °F 53% 29.83 in 10.0 mi WSW 8.1 mph - N/A   Clear
11:54 AM 91.0 °F 93.8 °F 66.0 °F 44% 29.83 in 10.0 mi SW 9.2 mph - N/A   Clear
12:54 PM 93.0 °F 95.0 °F 64.9 °F 39% 29.80 in 10.0 mi West 10.4 mph 20.7 mph N/A   Clear
1:54 PM 93.0 °F 94.6 °F 64.0 °F 38% 29.78 in 10.0 mi West 12.7 mph 23.0 mph N/A   Clear
2:54 PM 91.9 °F 93.3 °F 64.0 °F 39% 29.78 in 10.0 mi WSW 11.5 mph 19.6 mph N/A   Scattered Clouds
3:54 PM 93.0 °F 94.2 °F 63.0 °F 37% 29.77 in 10.0 mi West 12.7 mph 21.9 mph N/A   Clear
4:54 PM 91.9 °F 93.3 °F 64.0 °F 39% 29.76 in 10.0 mi West 10.4 mph - N/A   Clear
5:54 PM 89.1 °F 90.0 °F 63.0 °F 42% 29.77 in 10.0 mi WSW 8.1 mph - N/A   Clear
6:54 PM 87.1 °F 88.3 °F 64.0 °F 46% 29.79 in 10.0 mi Variable 3.5 mph - N/A   Mostly Cloudy
7:54 PM 73.9 °F - 69.1 °F 85% 29.86 in 10.0 mi North 8.1 mph - 0.01 in Rain Light Rain
8:54 PM 75.0 °F - 69.1 °F 82% 29.87 in 10.0 mi North 6.9 mph - 0.00 in Rain Light Rain
9:54 PM 73.0 °F - 69.1 °F 87% 29.90 in 10.0 mi NNE 9.2 mph - 0.01 in Rain Light Rain
10:54 PM 73.0 °F - 69.1 °F 87% 29.91 in 10.0 mi NNE 6.9 mph - 0.00 in   Overcast
11:54 PM 73.0 °F - 68.0 °F 84% 29.93 in 10.0 mi NNE 8.1 mph - N/A   Overcast